Time,TemperatureF,DewpointF,PressureIn,WindDirection,WindDirectionDegrees,WindSpeedMPH,WindSpeedGustMPH,Humidity,HourlyPrecipIn,Conditions,Clouds,dailyrainin,SoftwareType,DateUTC
2013-03-11 00:03:00,42.0,42.0,-100.00,SE,131,6.0,-999.0,100,0.00,,,0.00,,2013-03-11 04:03:00,
2013-03-11 00:12:00,42.0,42.0,-100.00,SE,131,6.0,-999.0,100,0.00,,,0.00,,2013-03-11 04:12:00,
2013-03-11 00:53:00,42.0,42.0,-100.00,SE,134,5.0,-999.0,100,0.00,,,0.00,,2013-03-11 04:53:00,
2013-03-11 01:04:00,42.0,42.0,-100.00,SE,134,5.0,-999.0,100,0.00,,,0.00,,2013-03-11 05:04:00,
2013-03-11 01:12:00,42.0,42.0,-100.00,SE,134,5.0,-999.0,100,0.00,,,0.00,,2013-03-11 05:12:00,
2013-03-11 01:52:00,42.0,42.0,-100.00,SE,136,4.0,-999.0,100,0.00,,,0.00,,2013-03-11 05:52:00,
2013-03-11 02:02:00,42.0,42.0,-100.00,SE,136,4.0,-999.0,100,0.00,,,0.00,,2013-03-11 06:02:00,
2013-03-11 02:12:00,42.0,42.0,-100.00,SE,136,4.0,-999.0,100,0.00,,,0.00,,2013-03-11 06:12:00,
2013-03-11 02:53:00,42.0,42.0,-100.00,SE,142,6.0,-999.0,100,0.00,,,0.00,,2013-03-11 06:53:00,
2013-03-11 03:03:00,42.0,42.0,-100.00,SE,142,6.0,-999.0,100,0.00,,,0.00,,2013-03-11 07:03:00,
2013-03-11 03:12:00,42.0,42.0,-100.00,SE,142,6.0,-999.0,100,0.00,,,0.00,,2013-03-11 07:12:00,
2013-03-11 03:52:00,42.0,42.0,-100.00,SE,143,4.0,-999.0,100,0.00,,,0.00,,2013-03-11 07:52:00,
2013-03-11 04:02:00,42.0,42.0,-100.00,SE,143,4.0,-999.0,100,0.00,,,0.00,,2013-03-11 08:02:00,
2013-03-11 04:12:00,42.0,42.0,-100.00,SE,143,4.0,-999.0,100,0.00,,,0.00,,2013-03-11 08:12:00,
2013-03-11 04:52:00,42.0,42.0,-100.00,SE,141,5.0,-999.0,100,0.00,,,0.00,,2013-03-11 08:52:00,
2013-03-11 05:02:00,42.0,42.0,-100.00,SE,141,5.0,-999.0,100,0.00,,,0.00,,2013-03-11 09:02:00,
2013-03-11 05:12:00,42.0,42.0,-100.00,SE,141,5.0,-999.0,100,0.00,,,0.00,,2013-03-11 09:12:00,
2013-03-11 05:53:00,42.0,42.0,-100.00,SE,145,3.0,-999.0,100,0.00,,,0.00,,2013-03-11 09:53:00,
2013-03-11 06:02:00,42.0,42.0,-100.00,SE,145,3.0,-999.0,100,0.00,,,0.00,,2013-03-11 10:02:00,
2013-03-11 06:12:00,42.0,42.0,-100.00,SE,145,3.0,-999.0,100,0.00,,,0.00,,2013-03-11 10:12:00,
2013-03-11 06:53:00,43.0,43.0,-100.00,SE,137,4.0,-999.0,100,0.00,,,0.00,,2013-03-11 10:53:00,
2013-03-11 07:03:00,43.0,43.0,-100.00,SE,137,4.0,-999.0,100,0.00,,,0.00,,2013-03-11 11:03:00,
2013-03-11 07:12:00,43.0,43.0,-100.00,SE,137,4.0,-999.0,100,0.00,,,0.00,,2013-03-11 11:12:00,
2013-03-11 07:53:00,43.0,43.0,-100.00,SE,143,5.0,-999.0,100,0.00,,,0.00,,2013-03-11 11:53:00,
2013-03-11 08:02:00,43.0,43.0,-100.00,SE,143,5.0,-999.0,100,0.00,,,0.00,,2013-03-11 12:02:00,
2013-03-11 08:12:00,43.0,43.0,-100.00,SE,143,5.0,-999.0,100,0.00,,,0.00,,2013-03-11 12:12:00,
2013-03-11 08:53:00,45.0,45.0,-100.00,SSE,153,5.0,-999.0,100,0.00,,,0.00,,2013-03-11 12:53:00,
2013-03-11 09:03:00,45.0,45.0,-100.00,SSE,153,5.0,-999.0,100,0.00,,,0.00,,2013-03-11 13:03:00,
2013-03-11 09:12:00,45.0,45.0,-100.00,SSE,153,5.0,-999.0,100,0.00,,,0.00,,2013-03-11 13:12:00,
2013-03-11 09:53:00,46.0,46.0,-100.00,SSE,162,5.0,-999.0,100,0.00,,,0.00,,2013-03-11 13:53:00,
2013-03-11 10:02:00,46.0,46.0,-100.00,SSE,162,5.0,-999.0,100,0.00,,,0.00,,2013-03-11 14:02:00,
2013-03-11 10:12:00,46.0,46.0,-100.00,SSE,162,5.0,-999.0,100,0.00,,,0.00,,2013-03-11 14:12:00,
2013-03-11 10:53:00,47.0,47.0,-100.00,SSE,149,7.0,-999.0,100,0.00,,,0.00,,2013-03-11 14:53:00,
2013-03-11 11:03:00,47.0,47.0,-100.00,SSE,149,7.0,-999.0,100,0.00,,,0.00,,2013-03-11 15:03:00,
2013-03-11 11:13:00,47.0,47.0,-100.00,SSE,149,7.0,-999.0,100,0.00,,,0.00,,2013-03-11 15:13:00,
2013-03-11 11:53:00,49.0,49.0,-100.00,East,100,6.0,-999.0,100,0.00,,,0.00,,2013-03-11 15:53:00,
2013-03-11 12:03:00,49.0,49.0,-100.00,East,100,6.0,-999.0,100,0.00,,,0.00,,2013-03-11 16:03:00,
2013-03-11 12:13:00,49.0,49.0,-100.00,East,100,6.0,-999.0,100,0.00,,,0.00,,2013-03-11 16:13:00,
2013-03-11 12:15:00,47.0,47.0,-100.00,SE,133,8.0,-999.0,100,0.00,,,0.00,,2013-03-11 16:15:00,
2013-03-11 12:53:00,47.0,47.0,-100.00,SE,133,8.0,-999.0,100,0.00,,,0.00,,2013-03-11 16:53:00,
2013-03-11 13:03:00,47.0,47.0,-100.00,SE,133,8.0,-999.0,100,0.00,,,0.00,,2013-03-11 17:03:00,
2013-03-11 14:02:00,49.0,49.0,-100.00,SE,134,9.0,-999.0,100,0.00,,,0.00,,2013-03-11 18:02:00,
2013-03-11 14:12:00,49.0,49.0,-100.00,SE,134,9.0,-999.0,100,0.00,,,0.00,,2013-03-11 18:12:00,
2013-03-11 14:53:00,50.0,50.0,-100.00,SSE,153,9.0,-999.0,100,0.00,,,0.00,,2013-03-11 18:53:00,
2013-03-11 15:02:00,50.0,50.0,-100.00,SSE,153,9.0,-999.0,100,0.00,,,0.00,,2013-03-11 19:02:00,
2013-03-11 15:13:00,50.0,50.0,-100.00,SSE,153,9.0,-999.0,100,0.00,,,0.00,,2013-03-11 19:13:00,
2013-03-11 15:53:00,49.0,49.0,-100.00,SSE,156,8.0,-999.0,100,0.00,,,0.00,,2013-03-11 19:53:00,
2013-03-11 16:02:00,49.0,49.0,-100.00,SSE,156,8.0,-999.0,100,0.00,,,0.00,,2013-03-11 20:02:00,
2013-03-11 16:12:00,49.0,49.0,-100.00,SSE,156,8.0,-999.0,100,0.00,,,0.00,,2013-03-11 20:12:00,
2013-03-11 16:53:00,49.0,49.0,-100.00,SSE,160,11.0,-999.0,100,0.00,,,0.00,,2013-03-11 20:53:00,
2013-03-11 17:03:00,49.0,49.0,-100.00,SSE,160,11.0,-999.0,100,0.00,,,0.00,,2013-03-11 21:03:00,
2013-03-11 17:13:00,49.0,49.0,-100.00,SSE,160,11.0,-999.0,100,0.00,,,0.00,,2013-03-11 21:13:00,
2013-03-11 17:54:00,48.0,48.0,-100.00,SSE,159,9.0,-999.0,100,0.00,,,0.00,,2013-03-11 21:54:00,
2013-03-11 18:03:00,48.0,48.0,-100.00,SSE,159,9.0,-999.0,100,0.00,,,0.00,,2013-03-11 22:03:00,
2013-03-11 18:13:00,48.0,48.0,-100.00,SSE,159,9.0,-999.0,100,0.00,,,0.00,,2013-03-11 22:13:00,
2013-03-11 18:53:00,46.0,46.0,-100.00,SSE,152,6.0,-999.0,100,0.00,,,0.00,,2013-03-11 22:53:00,
2013-03-11 19:03:00,46.0,46.0,-100.00,SSE,152,6.0,-999.0,100,0.00,,,0.00,,2013-03-11 23:03:00,
2013-03-11 19:12:00,46.0,46.0,-100.00,SSE,152,6.0,-999.0,100,0.00,,,0.00,,2013-03-11 23:12:00,
2013-03-11 19:54:00,48.0,48.0,-100.00,SSE,158,9.0,-999.0,100,0.00,,,0.00,,2013-03-11 23:54:00,
2013-03-11 20:02:00,48.0,48.0,-100.00,SSE,158,9.0,-999.0,100,0.00,,,0.00,,2013-03-12 00:02:00,
2013-03-11 20:13:00,48.0,48.0,-100.00,SSE,158,9.0,-999.0,100,0.00,,,0.00,,2013-03-12 00:13:00,
2013-03-11 20:54:00,48.0,48.0,-100.00,SSE,157,11.0,-999.0,100,0.00,,,0.00,,2013-03-12 00:54:00,
2013-03-11 21:02:00,48.0,48.0,-100.00,SSE,157,11.0,-999.0,100,0.00,,,0.00,,2013-03-12 01:02:00,
2013-03-11 21:12:00,48.0,48.0,-100.00,SSE,157,11.0,-999.0,100,0.00,,,0.00,,2013-03-12 01:12:00,
2013-03-11 21:53:00,48.0,48.0,-100.00,SSE,154,10.0,-999.0,100,0.00,,,0.00,,2013-03-12 01:53:00,
2013-03-11 22:02:00,48.0,48.0,-100.00,SSE,154,10.0,-999.0,100,0.00,,,0.00,,2013-03-12 02:02:00,
2013-03-11 22:13:00,48.0,48.0,-100.00,SSE,154,10.0,-999.0,100,0.00,,,0.00,,2013-03-12 02:13:00,
2013-03-11 22:52:00,47.0,47.0,-100.00,SE,144,11.0,-999.0,100,0.00,,,0.00,,2013-03-12 02:52:00,
2013-03-11 23:02:00,47.0,47.0,-100.00,SE,144,11.0,-999.0,100,0.00,,,0.00,,2013-03-12 03:02:00,
2013-03-11 23:12:00,47.0,47.0,-100.00,SE,144,11.0,-999.0,100,0.00,,,0.00,,2013-03-12 03:12:00,
2013-03-11 23:53:00,49.0,49.0,-100.00,SSE,155,11.0,-999.0,100,0.00,,,0.00,,2013-03-12 03:53:00,